This is the latest recevied weather packets stored in our database for station/object DB5ZQ. If no packets are shown the sender has not sent any weather packets the latest 10 day(s).
| Time | Temp. | Humidity | Pressure | Rain* | Wind** | Luminosity | Snow |
|---|---|---|---|---|---|---|---|
| 1778075056 | 20° C | 55% | 1001.3 hPa | 0 mm | - | - | - |
| 1778074756 | 21.11° C | 54% | 1001.3 hPa | 0 mm | - | - | - |
| 1778074456 | 20.56° C | 52% | 1001.3 hPa | 0 mm | - | - | - |
| 1778074156 | 21.11° C | 53% | 1001.3 hPa | 0 mm | - | - | - |
| 1778073855 | 21.11° C | 52% | 1001.3 hPa | 0 mm | - | - | - |
| 1778073555 | 21.11° C | 53% | 1001.4 hPa | 0 mm | - | - | - |
| 1778073255 | 21.11° C | 52% | 1001.3 hPa | 0 mm | - | - | - |
| 1778072955 | 20.56° C | 53% | 1001.3 hPa | 0 mm | - | - | - |
| 1778072654 | 20° C | 56% | 1001.3 hPa | 0 mm | - | - | - |
| 1778072354 | 20° C | 56% | 1001.3 hPa | 0 mm | - | - | - |
| 1778072054 | 20° C | 56% | 1001.4 hPa | 0 mm | - | - | - |
| 1778071753 | 20° C | 56% | 1001.3 hPa | 0 mm | - | - | - |
| 1778071453 | 20° C | 56% | 1001.4 hPa | 0 mm | - | - | - |
| 1778071153 | 20° C | 57% | 1001.4 hPa | 0 mm | - | - | - |
| 1778070852 | 20° C | 57% | 1001.4 hPa | 0 mm | - | - | - |
| 1778070552 | 19.44° C | 58% | 1001.4 hPa | 0 mm | - | - | - |
| 1778070252 | 19.44° C | 58% | 1001.4 hPa | 0 mm | - | - | - |
| 1778069952 | 19.44° C | 57% | 1001.3 hPa | 0 mm | - | - | - |
| 1778069651 | 20° C | 56% | 1001.4 hPa | 0 mm | - | - | - |
| 1778069351 | 20° C | 55% | 1001.4 hPa | 0 mm | - | - | - |
| 1778069051 | 20.56° C | 54% | 1001.3 hPa | 0 mm | - | - | - |
| 1778068750 | 20.56° C | 53% | 1001.4 hPa | 0 mm | - | - | - |
| 1778068450 | 20.56° C | 52% | 1001.4 hPa | 0 mm | - | - | - |
| 1778068150 | 20.56° C | 54% | 1001.4 hPa | 0 mm | - | - | - |
| 1778067850 | 20° C | 58% | 1001.3 hPa | 0 mm | - | - | - |
* Rain latest hour (hover to see other rain measurements)
** Current wind speed in m/s (hover to see current wind gust speed)